Time,TemperatureF,DewpointF,PressureIn,WindDirection,WindDirectionDegrees,WindSpeedMPH,WindSpeedGustMPH,Humidity,HourlyPrecipIn,Conditions,Clouds,dailyrainin,SoftwareType,DateUTC
2013-06-27 00:02:00,73.0,72.0,29.79,ESE,121,0.0,1.0,96,0.00,,,0.00,,2013-06-27 05:02:00,
2013-06-27 00:12:00,73.0,72.0,29.79,ESE,121,0.0,1.0,96,0.00,,,0.00,,2013-06-27 05:12:00,
2013-06-27 00:22:00,73.0,72.0,29.78,ESE,121,0.0,0.0,96,0.00,,,0.00,,2013-06-27 05:22:00,
2013-06-27 00:32:00,73.0,72.0,29.78,ESE,121,0.0,0.0,96,0.00,,,0.00,,2013-06-27 05:32:00,
2013-06-27 00:42:00,73.0,72.0,29.77,SE,128,0.0,0.0,97,0.00,,,0.00,,2013-06-27 05:42:00,
2013-06-27 00:53:00,73.0,72.0,29.77,SE,128,0.0,0.0,96,0.00,,,0.00,,2013-06-27 05:53:00,
2013-06-27 01:01:00,73.0,72.0,29.77,SE,128,0.0,0.0,96,0.00,,,0.00,,2013-06-27 06:01:00,
2013-06-27 01:12:00,73.0,72.0,29.77,SSW,211,2.0,5.0,97,0.00,,,0.00,,2013-06-27 06:12:00,
2013-06-27 01:22:00,73.0,72.0,29.78,SSW,211,0.0,1.0,97,0.00,,,0.00,,2013-06-27 06:22:00,
2013-06-27 01:34:00,73.0,72.0,29.78,SSW,211,0.0,1.0,97,0.00,,,0.00,,2013-06-27 06:34:00,
2013-06-27 01:43:00,73.0,72.0,29.78,SSW,211,0.0,0.0,97,0.00,,,0.00,,2013-06-27 06:43:00,
2013-06-27 01:53:00,73.0,72.0,29.78,SSW,211,0.0,0.0,97,0.00,,,0.00,,2013-06-27 06:53:00,
2013-06-27 02:02:00,73.0,72.0,29.78,SSW,211,0.0,0.0,97,0.00,,,0.00,,2013-06-27 07:02:00,
2013-06-27 02:12:00,73.0,72.0,29.79,SSW,211,0.0,0.0,97,0.00,,,0.00,,2013-06-27 07:12:00,
2013-06-27 02:22:00,72.0,71.0,29.79,SSW,211,0.0,0.0,97,0.00,,,0.00,,2013-06-27 07:22:00,
2013-06-27 02:33:00,72.0,71.0,29.79,SSW,211,0.0,0.0,97,0.00,,,0.00,,2013-06-27 07:33:00,
2013-06-27 02:42:00,72.0,71.0,29.79,SSW,211,0.0,0.0,97,0.00,,,0.00,,2013-06-27 07:42:00,
2013-06-27 02:52:00,72.0,71.0,29.79,SSW,211,0.0,0.0,97,0.00,,,0.00,,2013-06-27 07:52:00,
2013-06-27 03:01:00,72.0,71.0,29.79,SSW,211,0.0,0.0,97,0.00,,,0.00,,2013-06-27 08:01:00,
2013-06-27 03:11:00,72.0,71.0,29.80,SSW,211,0.0,0.0,97,0.00,,,0.00,,2013-06-27 08:11:00,
2013-06-27 03:22:00,73.0,72.0,29.79,SSW,211,0.0,2.0,97,0.00,,,0.00,,2013-06-27 08:22:00,
2013-06-27 03:34:00,73.0,72.0,29.79,SSW,211,0.0,2.0,97,0.00,,,0.00,,2013-06-27 08:34:00,
2013-06-27 03:43:00,72.0,71.0,29.79,SSW,211,0.0,2.0,97,0.00,,,0.00,,2013-06-27 08:43:00,
2013-06-27 03:52:00,72.0,71.0,29.79,SSW,211,0.0,1.0,97,0.00,,,0.00,,2013-06-27 08:52:00,
2013-06-27 04:02:00,72.0,71.0,29.79,SSW,211,0.0,1.0,97,0.00,,,0.00,,2013-06-27 09:02:00,
2013-06-27 04:11:00,72.0,71.0,29.79,SSW,211,0.0,0.0,97,0.00,,,0.00,,2013-06-27 09:11:00,
2013-06-27 04:22:00,72.0,71.0,29.79,SSW,211,0.0,0.0,97,0.00,,,0.00,,2013-06-27 09:22:00,
2013-06-27 04:34:00,72.0,71.0,29.79,SSW,211,0.0,0.0,97,0.00,,,0.00,,2013-06-27 09:34:00,
2013-06-27 04:43:00,72.0,71.0,29.79,SSW,211,0.0,0.0,97,0.00,,,0.00,,2013-06-27 09:43:00,
2013-06-27 04:53:00,71.0,70.0,29.79,SSW,211,0.0,1.0,97,0.00,,,0.00,,2013-06-27 09:53:00,
2013-06-27 05:01:00,71.0,70.0,29.79,SSW,211,0.0,1.0,97,0.00,,,0.00,,2013-06-27 10:01:00,
2013-06-27 05:11:00,71.0,70.0,29.79,SSW,211,0.0,0.0,97,0.00,,,0.00,,2013-06-27 10:11:00,
2013-06-27 05:22:00,71.0,70.0,29.79,SSW,211,0.0,0.0,97,0.00,,,0.00,,2013-06-27 10:22:00,
2013-06-27 05:32:00,71.0,70.0,29.79,SSW,211,0.0,0.0,97,0.00,,,0.00,,2013-06-27 10:32:00,
2013-06-27 05:44:00,71.0,70.0,29.79,SSW,211,0.0,0.0,97,0.00,,,0.00,,2013-06-27 10:44:00,
2013-06-27 05:54:00,71.0,70.0,29.79,SSW,211,0.0,0.0,97,0.00,,,0.00,,2013-06-27 10:54:00,
2013-06-27 06:01:00,71.0,70.0,29.79,SSW,211,0.0,0.0,97,0.00,,,0.00,,2013-06-27 11:01:00,
2013-06-27 06:11:00,71.0,70.0,29.79,SSW,211,0.0,0.0,98,0.00,,,0.00,,2013-06-27 11:11:00,
2013-06-27 06:22:00,72.0,71.0,29.79,SSW,211,0.0,1.0,98,0.00,,,0.00,,2013-06-27 11:22:00,
2013-06-27 06:33:00,72.0,71.0,29.79,SSW,211,0.0,1.0,98,0.00,,,0.00,,2013-06-27 11:33:00,
2013-06-27 06:43:00,72.0,71.0,29.80,NNW,336,0.0,2.0,98,0.00,,,0.00,,2013-06-27 11:43:00,
2013-06-27 06:52:00,72.0,71.0,29.80,NNW,328,0.0,2.0,98,0.00,,,0.00,,2013-06-27 11:52:00,
2013-06-27 07:02:00,72.0,71.0,29.80,NNW,328,0.0,2.0,98,0.00,,,0.00,,2013-06-27 12:02:00,
2013-06-27 07:11:00,73.0,72.0,29.80,NNW,328,0.0,2.0,98,0.00,,,0.00,,2013-06-27 12:11:00,
2013-06-27 07:22:00,74.0,73.0,29.81,SW,235,0.0,4.0,98,0.00,,,0.00,,2013-06-27 12:22:00,
2013-06-27 07:34:00,74.0,73.0,29.81,SW,235,0.0,4.0,98,0.00,,,0.00,,2013-06-27 12:34:00,
2013-06-27 07:42:00,74.0,73.0,29.81,WNW,299,0.0,4.0,98,0.00,,,0.00,,2013-06-27 12:42:00,
2013-06-27 08:01:00,75.0,74.0,29.81,WNW,292,0.0,4.0,98,0.00,,,0.00,,2013-06-27 13:01:00,
2013-06-27 08:11:00,76.0,75.0,29.81,WNW,291,0.0,2.0,97,0.00,,,0.00,,2013-06-27 13:11:00,
2013-06-27 08:22:00,77.0,76.0,29.81,West,262,0.0,4.0,96,0.00,,,0.00,,2013-06-27 13:22:00,
2013-06-27 08:34:00,77.0,76.0,29.81,West,262,0.0,4.0,96,0.00,,,0.00,,2013-06-27 13:34:00,
2013-06-27 08:43:00,78.0,76.0,29.81,WNW,286,1.0,6.0,93,0.00,,,0.00,,2013-06-27 13:43:00,
2013-06-27 08:52:00,79.0,76.0,29.81,WNW,293,1.0,9.0,91,0.00,,,0.00,,2013-06-27 13:52:00,
2013-06-27 09:02:00,79.0,76.0,29.81,WNW,293,1.0,9.0,91,0.00,,,0.00,,2013-06-27 14:02:00,
2013-06-27 09:11:00,80.0,77.0,29.81,NW,311,1.0,8.0,91,0.00,,,0.00,,2013-06-27 14:11:00,
2013-06-27 09:22:00,81.0,77.0,29.81,WNW,284,2.0,7.0,89,0.00,,,0.00,,2013-06-27 14:22:00,
2013-06-27 09:33:00,81.0,77.0,29.81,WNW,284,2.0,7.0,89,0.00,,,0.00,,2013-06-27 14:33:00,
2013-06-27 09:43:00,82.0,78.0,29.81,WNW,299,2.0,8.0,88,0.00,,,0.00,,2013-06-27 14:43:00,
2013-06-27 09:52:00,83.0,79.0,29.81,WNW,298,2.0,10.0,88,0.00,,,0.00,,2013-06-27 14:52:00,
2013-06-27 10:12:00,84.0,78.0,29.81,NNW,327,1.0,10.0,83,0.00,,,0.00,,2013-06-27 15:12:00,
2013-06-27 10:22:00,85.0,77.0,29.81,NNW,344,6.0,10.0,78,0.00,,,0.00,,2013-06-27 15:22:00,
2013-06-27 10:33:00,85.0,77.0,29.81,NNW,344,6.0,10.0,78,0.00,,,0.00,,2013-06-27 15:33:00,
2013-06-27 10:42:00,85.0,77.0,29.81,NNW,331,3.0,12.0,78,0.00,,,0.00,,2013-06-27 15:42:00,
2013-06-27 10:52:00,86.0,76.0,29.81,NNW,338,6.0,13.0,73,0.00,,,0.00,,2013-06-27 15:52:00,
2013-06-27 11:02:00,86.0,76.0,29.81,NNW,338,6.0,13.0,73,0.00,,,0.00,,2013-06-27 16:02:00,
2013-06-27 11:11:00,86.0,73.0,29.82,NW,326,4.0,12.0,66,0.00,,,0.00,,2013-06-27 16:11:00,
2013-06-27 11:23:00,86.0,73.0,29.82,WNW,294,6.0,14.0,65,0.00,,,0.00,,2013-06-27 16:23:00,
2013-06-27 11:34:00,86.0,73.0,29.82,WNW,294,6.0,14.0,65,0.00,,,0.00,,2013-06-27 16:34:00,
2013-06-27 11:43:00,87.0,74.0,29.81,NNW,334,6.0,14.0,66,0.00,,,0.00,,2013-06-27 16:43:00,
2013-06-27 11:53:00,86.0,74.0,29.82,NNW,336,10.0,18.0,68,0.00,,,0.00,,2013-06-27 16:53:00,
2013-06-27 12:01:00,86.0,74.0,29.82,NNW,336,10.0,18.0,68,0.00,,,0.00,,2013-06-27 17:01:00,
2013-06-27 12:11:00,87.0,75.0,29.82,NW,319,9.0,15.0,67,0.00,,,0.00,,2013-06-27 17:11:00,
2013-06-27 12:22:00,87.0,74.0,29.83,NNW,339,8.0,13.0,65,0.00,,,0.00,,2013-06-27 17:22:00,
2013-06-27 12:33:00,87.0,74.0,29.83,NNW,339,8.0,13.0,65,0.00,,,0.00,,2013-06-27 17:33:00,
2013-06-27 12:43:00,87.0,75.0,29.83,North,350,8.0,14.0,67,0.00,,,0.00,,2013-06-27 17:43:00,
2013-06-27 12:53:00,87.0,75.0,29.83,North,350,8.0,14.0,67,0.00,,,0.00,,2013-06-27 17:53:00,
2013-06-27 13:01:00,87.0,75.0,29.83,North,350,8.0,14.0,67,0.00,,,0.00,,2013-06-27 18:01:00,
2013-06-27 13:11:00,87.0,76.0,29.83,NNW,333,7.0,13.0,69,0.00,,,0.00,,2013-06-27 18:11:00,
2013-06-27 13:22:00,88.0,76.0,29.83,North,360,9.0,15.0,67,0.00,,,0.00,,2013-06-27 18:22:00,
2013-06-27 13:32:00,88.0,76.0,29.83,North,360,9.0,15.0,67,0.00,,,0.00,,2013-06-27 18:32:00,
2013-06-27 13:44:00,88.0,74.0,29.83,North,355,6.0,15.0,64,0.00,,,0.00,,2013-06-27 18:44:00,
2013-06-27 13:52:00,89.0,74.0,29.84,NW,306,9.0,15.0,62,0.00,,,0.00,,2013-06-27 18:52:00,
2013-06-27 14:01:00,89.0,74.0,29.84,NW,306,9.0,15.0,62,0.00,,,0.00,,2013-06-27 19:01:00,
2013-06-27 14:11:00,89.0,75.0,29.84,NNW,342,6.0,18.0,64,0.00,,,0.00,,2013-06-27 19:11:00,
2013-06-27 14:53:00,89.0,73.0,29.83,NW,311,9.0,13.0,60,0.00,,,0.00,,2013-06-27 19:53:00,
2013-06-27 15:01:00,89.0,74.0,29.83,NNW,334,7.0,12.0,61,0.00,,,0.00,,2013-06-27 20:01:00,
2013-06-27 15:11:00,89.0,74.0,29.83,NNW,334,7.0,12.0,61,0.00,,,0.00,,2013-06-27 20:11:00,
2013-06-27 15:22:00,90.0,76.0,29.83,NW,324,8.0,14.0,64,0.00,,,0.00,,2013-06-27 20:22:00,
2013-06-27 15:45:00,90.0,72.0,29.83,NW,320,12.0,18.0,55,0.00,,,0.00,,2013-06-27 20:45:00,
2013-06-27 15:55:00,90.0,72.0,29.83,NNW,336,11.0,16.0,55,0.00,,,0.00,,2013-06-27 20:55:00,
2013-06-27 16:05:00,90.0,72.0,29.83,NNW,340,9.0,15.0,55,0.00,,,0.00,,2013-06-27 21:05:00,
2013-06-27 16:24:00,90.0,72.0,29.83,NNW,343,8.0,13.0,55,0.00,,,0.00,,2013-06-27 21:24:00,
2013-06-27 16:36:00,90.0,71.0,29.83,NNW,335,8.0,14.0,54,0.00,,,0.00,,2013-06-27 21:36:00,
2013-06-27 16:46:00,90.0,71.0,29.83,NNW,335,8.0,14.0,54,0.00,,,0.00,,2013-06-27 21:46:00,
2013-06-27 16:55:00,89.0,72.0,29.82,NNW,330,4.0,11.0,57,0.00,,,0.00,,2013-06-27 21:55:00,
2013-06-27 17:06:00,89.0,71.0,29.82,NNW,336,4.0,12.0,56,0.00,,,0.00,,2013-06-27 22:06:00,
2013-06-27 17:14:00,89.0,71.0,29.82,NNW,336,4.0,12.0,56,0.00,,,0.00,,2013-06-27 22:14:00,
2013-06-27 17:24:00,89.0,72.0,29.81,NNW,339,1.0,9.0,57,0.00,,,0.00,,2013-06-27 22:24:00,
2013-06-27 17:35:00,88.0,71.0,29.81,West,281,1.0,8.0,57,0.00,,,0.00,,2013-06-27 22:35:00,
2013-06-27 17:48:00,88.0,71.0,29.81,West,281,1.0,8.0,57,0.00,,,0.00,,2013-06-27 22:48:00,
2013-06-27 17:58:00,88.0,71.0,29.80,WNW,291,2.0,7.0,58,0.00,,,0.00,,2013-06-27 22:58:00,
2013-06-27 18:05:00,89.0,71.0,29.80,NW,309,2.0,9.0,56,0.00,,,0.00,,2013-06-27 23:05:00,
2013-06-27 18:15:00,89.0,71.0,29.80,NW,309,2.0,9.0,56,0.00,,,0.00,,2013-06-27 23:15:00,
2013-06-27 18:25:00,90.0,72.0,29.80,West,272,4.0,9.0,55,0.00,,,0.00,,2013-06-27 23:25:00,
2013-06-27 18:34:00,89.0,72.0,29.80,NW,309,0.0,9.0,58,0.00,,,0.00,,2013-06-27 23:34:00,
2013-06-27 18:45:00,89.0,72.0,29.80,NW,309,0.0,9.0,58,0.00,,,0.00,,2013-06-27 23:45:00,
2013-06-27 18:58:00,88.0,71.0,29.80,West,273,1.0,6.0,57,0.00,,,0.00,,2013-06-27 23:58:00,
2013-06-27 19:06:00,88.0,71.0,29.79,West,281,1.0,7.0,57,0.00,,,0.00,,2013-06-28 00:06:00,
2013-06-27 19:13:00,88.0,71.0,29.79,West,281,1.0,7.0,57,0.00,,,0.00,,2013-06-28 00:13:00,
2013-06-27 19:28:00,88.0,70.0,29.78,WNW,287,1.0,5.0,56,0.00,,,0.00,,2013-06-28 00:28:00,
2013-06-27 19:34:00,88.0,72.0,29.77,WNW,287,0.0,1.0,59,0.00,,,0.00,,2013-06-28 00:34:00,
2013-06-27 19:45:00,88.0,72.0,29.77,WNW,287,0.0,1.0,59,0.00,,,0.00,,2013-06-28 00:45:00,
2013-06-27 19:56:00,88.0,72.0,29.76,WNW,284,0.0,1.0,60,0.00,,,0.00,,2013-06-28 00:56:00,
2013-06-27 20:06:00,86.0,69.0,29.76,WNW,288,1.0,5.0,58,0.00,,,0.00,,2013-06-28 01:06:00,
2013-06-27 20:14:00,86.0,69.0,29.76,WNW,288,1.0,5.0,58,0.00,,,0.00,,2013-06-28 01:14:00,
2013-06-27 20:25:00,85.0,70.0,29.75,WNW,296,0.0,4.0,60,0.00,,,0.00,,2013-06-28 01:25:00,
2013-06-27 20:35:00,84.0,70.0,29.75,WNW,296,0.0,0.0,63,0.00,,,0.00,,2013-06-28 01:35:00,
2013-06-27 20:45:00,84.0,70.0,29.75,WNW,296,0.0,0.0,63,0.00,,,0.00,,2013-06-28 01:45:00,
2013-06-27 20:57:00,82.0,69.0,29.76,WNW,296,0.0,0.0,65,0.00,,,0.00,,2013-06-28 01:57:00,
2013-06-27 21:05:00,81.0,70.0,29.77,WNW,296,0.0,0.0,70,0.00,,,0.00,,2013-06-28 02:05:00,
2013-06-27 21:17:00,81.0,70.0,29.77,WNW,296,0.0,0.0,70,0.00,,,0.00,,2013-06-28 02:17:00,
2013-06-27 21:27:00,80.0,70.0,29.77,WNW,296,0.0,0.0,71,0.00,,,0.00,,2013-06-28 02:27:00,
2013-06-27 21:36:00,79.0,70.0,29.77,WNW,296,0.0,0.0,74,0.00,,,0.00,,2013-06-28 02:36:00,
2013-06-27 21:48:00,79.0,70.0,29.77,WNW,296,0.0,0.0,74,0.00,,,0.00,,2013-06-28 02:48:00,
2013-06-27 21:57:00,78.0,72.0,29.78,WNW,296,0.0,0.0,82,0.00,,,0.00,,2013-06-28 02:57:00,
2013-06-27 22:07:00,77.0,72.0,29.78,WNW,296,0.0,0.0,85,0.00,,,0.00,,2013-06-28 03:07:00,
2013-06-27 22:14:00,77.0,72.0,29.78,WNW,296,0.0,0.0,85,0.00,,,0.00,,2013-06-28 03:14:00,
2013-06-27 22:27:00,76.0,72.0,29.79,WNW,296,0.0,0.0,86,0.00,,,0.00,,2013-06-28 03:27:00,
2013-06-27 22:36:00,76.0,72.0,29.79,WNW,296,0.0,0.0,86,0.00,,,0.00,,2013-06-28 03:36:00,
2013-06-27 22:44:00,76.0,71.0,29.79,WNW,296,0.0,0.0,85,0.00,,,0.00,,2013-06-28 03:44:00,
2013-06-27 22:56:00,77.0,71.0,29.80,WNW,292,0.0,0.0,83,0.00,,,0.00,,2013-06-28 03:56:00,
2013-06-27 23:02:00,77.0,71.0,29.80,WNW,294,0.0,1.0,81,0.00,,,0.00,,2013-06-28 04:02:00,
2013-06-27 23:12:00,77.0,71.0,29.80,WNW,294,0.0,1.0,81,0.00,,,0.00,,2013-06-28 04:12:00,
2013-06-27 23:22:00,78.0,71.0,29.80,WSW,237,0.0,4.0,79,0.00,,,0.00,,2013-06-28 04:22:00,
2013-06-27 23:33:00,78.0,71.0,29.80,WNW,291,1.0,5.0,79,0.00,,,0.00,,2013-06-28 04:33:00,
2013-06-27 23:43:00,78.0,71.0,29.80,WNW,291,1.0,5.0,79,0.00,,,0.00,,2013-06-28 04:43:00,
2013-06-27 23:53:00,78.0,71.0,29.80,West,279,1.0,5.0,79,0.00,,,0.00,,2013-06-28 04:53:00,